[[{"header":{"parameterUnit":"m.s-1","parameterCategory":1,"la1":30.2992,"la2":30.254,"lo1":-89.0895,"lo2":-89.0443,"dy":0.0025,"dx":0.0025,"nx":19,"ny":19,"refTime":"2026-05-22T03:00:00:Z","depth":0,"parameterNumber":2,"parameterNumberName":"U-component_of_WINDS"},"data":[0,0,0,-1.723,-1.7231,-1.7277,-1.7278,-1.7334,-1.7334,0,0,0,0,0,0,0,0,0,0,0,-1.7213,-1.7213,-1.723,-1.7231,-1.7277,-1.7278,-1.7334,-1.7334,0,0,0,0,0,0,0,0,0,0,0,-1.7212,-1.7213,-1.7213,-1.7231,-1.7277,-1.7278,-1.7334,-1.73,0,0,0,0,0,0,0,0,0,0,-1.7256,-1.7236,-1.7213,-1.7213,-1.7231,-1.7277,-1.7278,-1.7299,-1.7302,-1.7311,0,-1.7316,0,-1.7326,-1.7338,-1.7338,0,0,0,-1.7234,-1.7233,-1.7248,-1.7213,-1.7232,-1.7277,-1.7257,-1.7301,-1.7305,-1.7316,-1.7317,-1.7319,-1.7327,-1.7338,-1.7338,-1.7373,-1.7373,0,0,-1.7232,-1.7219,-1.7245,-1.7251,-1.7241,-1.7256,-1.7259,-1.7303,-1.7305,-1.7317,-1.7321,-1.7328,-1.7339,-1.7339,-1.7373,-1.7373,0,0,0,-1.7222,-1.7217,-1.7232,-1.7248,-1.7257,-1.7257,-1.7261,-1.7303,-1.7308,-1.7321,-1.7329,-1.7339,-1.7339,-1.7373,-1.7373,-1.7361,0,0,0,-1.7221,-1.7212,-1.7231,-1.7224,-1.7256,-1.728,-1.7259,-1.7305,-1.7311,-1.7328,-1.7339,-1.734,-1.7373,-1.7373,-1.7361,-1.7357,0,0,0,-1.7211,-1.7211,-1.7216,-1.7223,-1.7242,-1.7279,-1.7288,-1.7307,-1.7315,-1.7338,-1.734,-1.7373,-1.7373,-1.7361,-1.7358,-1.7362,0,0,0,-1.7197,-1.7205,-1.7216,-1.7228,-1.7242,-1.7271,-1.7288,-1.731,-1.7329,-1.7339,-1.7373,-1.7373,-1.7362,-1.7358,-1.7363,-1.7364,-1.7363,0,0,-1.72,-1.7205,-1.7213,-1.7224,-1.7247,-1.7265,-1.7288,-1.7317,-1.7332,-1.7359,-1.736,-1.7361,-1.7358,-1.7362,-1.7364,-1.7363,0,0,0,-1.721,-1.7215,-1.7224,-1.724,-1.7262,-1.7281,-1.7308,-1.7319,-1.7343,-1.7342,-1.7365,-1.7363,-1.7366,-1.7368,-1.7367,-1.7371,-1.7373,-1.7373,-1.7373,-1.7196,-1.7213,-1.7228,-1.725,-1.7266,-1.7294,-1.7309,-1.7329,-1.7342,-1.7347,-1.7355,-1.7354,-1.7355,-1.7354,-1.7358,-1.7358,-1.7358,-1.7358,-1.7358,-1.7202,-1.7213,-1.723,-1.725,-1.7269,-1.7287,-1.7314,-1.7323,-1.7344,-1.7349,-1.7353,-1.7357,-1.7353,-1.7357,-1.7357,-1.7357,-1.7357,-1.7357,-1.7357,-1.7195,-1.7203,-1.7216,-1.7241,-1.7258,-1.7282,-1.73,-1.7317,-1.7334,-1.7338,-1.7348,-1.7348,-1.7351,-1.7341,-1.7341,-1.7341,-1.7341,-1.7341,-1.7341,-1.7182,-1.7197,-1.7209,-1.7233,-1.7246,-1.7265,-1.7293,-1.7307,-1.7327,-1.7338,-1.7338,-1.7351,-1.7349,-1.7348,-1.7341,-1.7341,-1.7341,-1.7341,-1.7341,-1.7181,-1.7184,-1.7203,-1.7216,-1.7245,-1.7262,-1.7284,-1.731,-1.7324,-1.7333,-1.7346,-1.7342,-1.7348,-1.7349,-1.7348,-1.7342,-1.7342,-1.7342,-1.7342,-1.7175,-1.718,-1.7203,-1.7222,-1.7243,-1.7264,-1.7287,-1.7309,-1.7334,-1.7344,-1.7348,-1.7348,-1.7348,-1.7355,-1.7356,-1.7355,-1.7351,-1.7351,-1.7351,-1.7175,-1.7183,-1.7197,-1.722,-1.7244,-1.7266,-1.7288,-1.7311,-1.7339,-1.7351,-1.7352,-1.7352,-1.7353,-1.7353,-1.7364,-1.7364,-1.7364,0,0]},{"header":{"parameterUnit":"m.s-1","parameterCategory":1,"la1":30.2992,"la2":30.254,"lo1":-89.0895,"lo2":-89.0443,"dy":0.0025,"dx":0.0025,"nx":19,"ny":19,"refTime":"2026-05-22T03:00:00:Z","depth":0,"parameterNumber":3,"parameterNumberName":"V-component_of_WINDS"},"data":[0,0,0,5.0925,5.0926,5.0987,5.0987,5.1078,5.1079,0,0,0,0,0,0,0,0,0,0,0,5.0917,5.0918,5.0925,5.0927,5.0987,5.0987,5.1078,5.1079,0,0,0,0,0,0,0,0,0,0,0,5.0917,5.0918,5.0919,5.0927,5.0987,5.0987,5.1077,5.1026,0,0,0,0,0,0,0,0,0,0,5.0965,5.0969,5.0918,5.0919,5.0927,5.0987,5.0987,5.1024,5.103,5.1057,0,5.1086,0,5.1084,5.1086,5.1086,0,0,0,5.0918,5.0965,5.0972,5.092,5.0928,5.0987,5.0957,5.1027,5.1034,5.1065,5.1087,5.109,5.1086,5.1087,5.1087,5.1277,5.1278,0,0,5.0915,5.0933,5.0967,5.0976,5.097,5.0955,5.0959,5.1031,5.1055,5.1088,5.1092,5.1087,5.1087,5.1088,5.1275,5.1277,0,0,0,5.0911,5.0932,5.0936,5.0973,5.0983,5.0957,5.0962,5.1052,5.1052,5.1093,5.1088,5.1088,5.1089,5.1274,5.1276,5.1356,0,0,0,5.0908,5.0929,5.0935,5.0947,5.0982,5.1019,5.0982,5.1047,5.1055,5.1088,5.1088,5.109,5.1272,5.1275,5.1351,5.139,0,0,0,5.091,5.0929,5.0942,5.0948,5.0975,5.1017,5.1021,5.1049,5.1053,5.1086,5.1091,5.1272,5.1274,5.1346,5.1383,5.1444,0,0,0,5.0916,5.1013,5.0943,5.1049,5.0975,5.1068,5.1021,5.1089,5.1127,5.1089,5.1273,5.1276,5.1345,5.1378,5.1439,5.1498,5.1525,0,0,5.1048,5.1029,5.109,5.103,5.114,5.1057,5.1178,5.1195,5.1181,5.1245,5.1249,5.1353,5.1382,5.1443,5.1673,5.1694,0,0,0,5.1138,5.1181,5.1206,5.1245,5.1262,5.1278,5.1275,5.1281,5.1335,5.1219,5.1392,5.1409,5.1444,5.1471,5.1489,5.1517,5.129,5.1289,5.1289,5.135,5.1327,5.1425,5.1409,5.1447,5.1443,5.1471,5.1478,5.1444,5.1485,5.1503,5.1646,5.1678,5.1692,5.1721,5.1534,5.1535,5.1535,5.1535,5.1539,5.1596,5.1549,5.1626,5.1601,5.1665,5.1665,5.1638,5.1693,5.163,5.166,5.1591,5.1716,5.174,5.1541,5.154,5.1539,5.1539,5.1538,5.1673,5.1697,5.1704,5.1756,5.1799,5.1779,5.1834,5.1809,5.1786,5.1815,5.183,5.1829,5.1822,5.1825,5.1825,5.1826,5.1826,5.1827,5.1827,5.1809,5.1815,5.1865,5.189,5.1911,5.1935,5.1931,5.195,5.1965,5.1942,5.1942,5.1902,5.1734,5.169,5.1834,5.1833,5.1832,5.1831,5.1831,5.2006,5.1958,5.2035,5.2056,5.2082,5.2125,5.2093,5.2134,5.2146,5.2174,5.2128,5.2008,5.1986,5.1972,5.1935,5.2134,5.2134,5.2134,5.2134,5.2118,5.2105,5.2178,5.2212,5.2243,5.2222,5.2307,5.2306,5.2296,5.2301,5.2269,5.222,5.2206,5.2192,5.2173,5.2139,5.2384,5.2385,5.2385,5.2236,5.2225,5.2304,5.2294,5.2313,5.2329,5.2408,5.2448,5.2427,5.2394,5.2304,5.2294,5.2214,5.219,5.2154,5.2124,5.2061,0,0]}]]